Location: Dumpton Point
(51.3500°N, 1.4433°E)
Time: 18:20:11
(UTC+00:00)

Cosmos 2219 Rocket - Pass Details

Date: 09 April 2020
Orbit: 829 x 845 km, 71.0° (Epoch: 25 May)

Event Time Altitude Azimuth Distance (km) Brightness Sun altitude
Rises 22:24:33 0° 330° (NNW) 3,392 6.6 -27.5°
Reaches altitude 10° 22:27:45 10° 348° (NNW) 2,453 5.5 -27.7°
Maximum altitude 22:31:41 19° 33° (NNE) 1,888 4.3 -27.9°
Enters shadow 22:34:45 13° 70° (ENE) 2,239 4.4 -28.1°
